Taylors, SC (29687)

4:17 PM EDT on May 29, 2017 (GMT -0400)
Edward's Forest | | Change Station
Active Advisory: Severe Thunderstorm Watch

Elev 1000 ft 34.93 °N, 82.33 °W | Updated 0 second ago

Partly Cloudy
Partly Cloudy
83.5 °F
Feels Like 87 °F
N
0.0
Wind Variable Wind from WNW
Gusts 3.0 mph

Today
High -- | Low -- °F
--% Chance of Precip.
Yesterday
High -- | Low -- °F
Precip. -- in
Pressure 29.95 in
Visibility 10.0 miles
Clouds Few 4800 ft
Heat Index 87 °F
Dew Point 69 °F
Humidity 62%
Rainfall 0.00 in
Snow Depth Not available.
6:17 AM 8:36 PM
Waxing Crescent, 22% visible
METAR KGSP 291953Z 25008KT 10SM FEW048 28/18 A2998 RMK AO2 SLP141 T02830178
Pressure 29.95 in
Visibility 10.0 miles
Clouds Few 4800 ft
Heat Index 87 °F
Dew Point 69 °F
Humidity 62%
Rainfall 0.00 in
Snow Depth Not available.
6:17 AM 8:36 PM
Waxing Crescent, 22% visible
METAR KGSP 291953Z 25008KT 10SM FEW048 28/18 A2998 RMK AO2 SLP141 T02830178

Get Your Daily Forecast Email!

Thanks for signing up!

Be on the lookout for a verification email in your inbox.

You'll start receiving severe weather alerts in your inbox..

×

10-Day Weather Forecast

Almanac

Astronomy

May. 29, 2017 Rise Set
Actual Time
Civil Twilight
Nautical Twilight
Astronomical Twilight
Moon
Length of Visible Light
Length of Day
Tomorrow will be .
, % of the Moon is Illuminated

Today's Extremes

State Highs State Lows

Community

WunderPhotos

Category 6

Welcome to Category 6. This is the collective home for Weather Underground's featured writeups by Dr. Jeff Masters (right), Bob Henson (left), Chris Burt, and other regular contributors.

Nearby

Air Quality

  Air Quality AQ Index Pollutant
Not available.

Snow Depth

Station Depth Elevation

Earthquake Activity

City Distance Mag. Time & Date
Minimum magnitude displayed is 2.5.

Coastal Water Temperatures

Place Temperature

Stations

Nearby Weather Stations

Station Location Temp. Windchill Dew Point Humidity Wind Precip. Elev Updated Type
                   

Watches & Warnings

Severe Thunderstorm Watch
Issued: 4:03 PM EDT May. 29, 2017 – National Weather Service

Severe Thunderstorm Watch 298 remains in effect until 900 PM EDT

SC
. South Carolina counties included are

Abbeville Aiken Anderson
Bamberg Barnwell Calhoun
Cherokee Chester Chesterfield
Clarendon Edgefield Fairfield
Greenville Greenwood Kershaw
Lancaster Laurens Lee
Lexington McCormick Newberry
Oconee Orangeburg Pickens
Richland Saluda Spartanburg
Sumter Union York